S59ZO-6 Weather Reports


time (UTC)temp
C
wind
direction
speed
KPH
gust
KPH
rain 1hr
cm
rain 24hr
cm
rain mn
cm
humidity
%
barometer
mb
20260906064004 18 160 0.0 3.2 0.00 0.00 0.00 76 1025.3
20260906063503 17 146 0.0 3.2 0.00 0.00 0.00 77 1025.2
20260906063004 17 45 0.0 3.2 0.00 0.00 0.00 78 1025.3
20260906062503 17 45 1.6 3.2 0.00 0.00 0.00 79 1025.1
20260906062003 17 45 1.6 3.2 0.00 0.00 0.00 82 1025.2
20260906061504 17 45 0.0 3.2 0.00 0.00 0.00 83 1025.2
20260906061004 16 45 0.0 1.6 0.00 0.00 0.00 83 1024.9
20260906060504 16 135 0.0 3.2 0.00 0.00 0.00 84 1025.1
20260906060004 16 135 0.0 3.2 0.00 0.00 0.00 84 1024.9
20260906055504 16 135 1.6 3.2 0.00 0.00 0.00 84 1024.9
20260906055004 15 135 0.0 1.6 0.00 0.00 0.00 84 1024.9
20260906054503 15 45 0.0 1.6 0.00 0.00 0.00 84 1024.9
20260906054004 15 49 0.0 3.2 0.00 0.00 0.00 84 1024.9
20260906053503 15 73 1.6 3.2 0.00 0.00 0.00 84 1024.9
20260906053004 15 124 0.0 3.2 0.00 0.00 0.00 84 1024.9
20260906052504 15 135 0.0 1.6 0.00 0.00 0.00 84 1024.7
20260906052004 15 135 0.0 3.2 0.00 0.00 0.00 84 1024.6
20260906051504 15 160 0.0 3.2 0.00 0.00 0.00 84 1024.7
20260906051004 15 166 1.6 3.2 0.00 0.00 0.00 84 1024.6
20260906050503 15 89 1.6 3.2 0.00 0.00 0.00 84 1024.5
20260906050005 15 120 0.0 3.2 0.00 0.00 0.00 84 1024.3
20260906045503 15 135 0.0 3.2 0.00 0.00 0.00 85 1024.4
20260906045004 15 74 0.0 3.2 0.00 0.00 0.00 84 1024.3
20260906044504 15 107 0.0 3.2 0.00 0.00 0.00 84 1024.4
20260906044005 15 171 0.0 3.2 0.00 0.00 0.00 84 1024.3
20260906043504 15 181 1.6 3.2 0.00 0.00 0.00 83 1024.4
20260906043004 15 0 0.0 0.0 0.00 0.00 0.00 83 1024.2
20260906042503 15 0 0.0 0.0 0.00 0.00 0.00 83 1024.3
20260906042004 15 0 0.0 0.0 0.00 0.00 0.00 83 1024.3
20260906041504 15 0 0.0 0.0 0.00 0.00 0.00 83 1024.1
20260906041004 15 0 0.0 0.0 0.00 0.00 0.00 82 1024.1
20260906040503 15 0 0.0 0.0 0.00 0.00 0.00 82 1024.1
20260906040004 15 0 0.0 0.0 0.00 0.00 0.00 82 1024.0
20260906035503 15 0 0.0 0.0 0.00 0.00 0.00 82 1023.9
20260906035004 15 0 0.0 0.0 0.00 0.00 0.00 82 1023.9
20260906034503 16 0 0.0 0.0 0.00 0.00 0.00 82 1024.0
20260906034004 16 0 0.0 0.0 0.00 0.00 0.00 83 1024.0
20260906033503 16 0 0.0 0.0 0.00 0.00 0.00 83 1024.0
20260906033004 16 0 0.0 0.0 0.00 0.00 0.00 83 1023.9
20260906032504 16 0 0.0 0.0 0.00 0.00 0.00 83 1023.8
20260906032004 16 0 0.0 0.0 0.00 0.00 0.00 83 1023.8
20260906031504 16 0 0.0 0.0 0.00 0.00 0.00 83 1023.8
20260906031004 16 0 0.0 0.0 0.00 0.00 0.00 82 1023.7
20260906030503 16 0 0.0 0.0 0.00 0.00 0.00 82 1023.6
20260906030004 16 0 0.0 0.0 0.00 0.00 0.00 82 1023.6
20260906025504 16 0 0.0 0.0 0.00 0.00 0.00 81 1023.7
20260906025004 16 0 0.0 0.0 0.00 0.00 0.00 82 1023.4
20260906024504 16 0 0.0 0.0 0.00 0.00 0.00 82 1023.5
20260906024004 16 0 0.0 0.0 0.00 0.00 0.00 81 1023.5
20260906023503 16 0 0.0 0.0 0.00 0.00 0.00 81 1023.4
20260906023003 16 0 0.0 0.0 0.00 0.00 0.00 81 1023.5
20260906022503 17 161 0.0 3.2 0.00 0.00 0.00 81 1023.7
20260906022004 17 154 0.0 3.2 0.00 0.00 0.00 82 1023.6
20260906021504 17 135 0.0 1.6 0.00 0.00 0.00 81 1023.6
20260906021005 17 135 0.0 1.6 0.00 0.00 0.00 81 1023.5
20260906020505 17 135 0.0 1.6 0.00 0.00 0.00 81 1023.4
20260906020005 17 135 0.0 1.6 0.00 0.00 0.00 81 1023.5
20260906015505 17 164 0.0 1.6 0.00 0.00 0.00 81 1023.3
20260906015006 17 177 0.0 3.2 0.00 0.00 0.00 81 1023.3
20260906014505 17 182 0.0 3.2 0.00 0.00 0.00 80 1023.3
20260906014005 17 150 3.2 3.2 0.00 0.00 0.00 80 1023.4
20260906013504 17 45 0.0 3.2 0.00 0.00 0.00 76 1023.2
20260906013006 17 45 1.6 3.2 0.00 0.00 0.00 76 1023.3
20260906012505 17 135 0.0 1.6 0.00 0.00 0.00 76 1023.3
20260906012005 17 135 0.0 1.6 0.00 0.00 0.00 76 1023.3
20260906011505 17 135 0.0 3.2 0.00 0.00 0.00 76 1023.4
20260906011006 17 135 0.0 3.2 0.00 0.00 0.00 75 1023.2
20260906010505 17 135 0.0 3.2 0.00 0.00 0.00 75 1023.2
20260906010005 17 133 0.0 3.2 0.00 0.00 0.00 75 1023.1
20260906005505 17 130 1.6 3.2 0.00 0.00 0.00 75 1023.1
20260906005006 17 45 0.0 1.6 0.00 0.00 0.00 75 1023.0
20260906004504 17 0 0.0 0.0 0.00 0.00 0.00 75 1023.1
20260906004005 17 148 0.0 3.2 0.00 0.00 0.00 75 1023.1
20260906003505 17 151 0.0 3.2 0.00 0.00 0.00 74 1023.1
20260906003005 17 154 1.6 3.2 0.00 0.00 0.00 74 1023.1
20260906002505 18 135 0.0 3.2 0.00 0.00 0.00 74 1023.0
20260906002006 18 59 0.0 3.2 0.00 0.00 0.00 74 1022.9
20260906001505 18 50 0.0 3.2 0.00 0.00 0.00 73 1022.9
20260906001005 18 0 0.0 0.0 0.00 0.00 0.00 73 1022.8
20260906000505 18 0 0.0 0.0 0.00 0.00 0.00 73 1022.9
20260906000005 18 124 0.0 1.6 0.00 0.00 0.00 73 1022.8
20260905235505 18 105 0.0 1.6 0.00 0.00 0.00 74 1022.9
20260905235006 18 90 0.0 1.6 0.00 0.00 0.00 74 1022.7
20260905234505 18 0 0.0 0.0 0.00 0.00 0.00 74 1022.7
20260905234005 18 0 0.0 0.0 0.00 0.00 0.00 74 1022.7
20260905233505 18 0 0.0 0.0 0.00 0.00 0.00 74 1022.7
20260905233006 18 0 0.0 0.0 0.00 0.00 0.00 74 1022.6
20260905232505 18 135 0.0 1.6 0.00 0.00 0.00 74 1022.5
20260905232005 18 135 0.0 3.2 0.00 0.00 0.00 74 1022.5
20260905231505 18 135 1.6 3.2 0.00 0.00 0.00 73 1022.5
20260905231005 18 181 0.0 3.2 0.00 0.00 0.00 73 1022.4
20260905230505 18 168 0.0 3.2 0.00 0.00 0.00 73 1022.6
20260905230005 18 164 1.6 3.2 0.00 0.00 0.00 73 1022.7
20260905225505 18 165 0.0 3.2 0.00 0.00 0.00 73 1022.7
20260905225005 18 0 0.0 0.0 0.00 0.00 0.00 73 1022.6
20260905224505 18 0 0.0 0.0 0.00 0.00 0.00 73 1022.5
20260905224005 18 0 0.0 0.0 0.00 0.00 0.00 72 1022.5
20260905223506 18 0 0.0 0.0 0.00 0.00 0.00 72 1022.4
20260905223006 18 181 0.0 3.2 0.00 0.00 0.00 72 1022.4
20260905222504 18 181 0.0 3.2 0.00 0.00 0.00 72 1022.2
20260905222005 18 21 0.0 1.6 0.00 0.00 0.00 72 1022.2
20260905221505 19 33 0.0 1.6 0.00 0.00 0.00 71 1022.2
20260905221005 19 0 0.0 0.0 0.00 0.00 0.00 71 1022.3
20260905220505 19 135 0.0 1.6 0.00 0.00 0.00 71 1022.2
20260905220007 19 135 0.0 1.6 0.00 0.00 0.00 71 1022.3
20260905215505 19 135 0.0 1.6 0.00 0.00 0.00 71 1022.2
20260905215005 19 135 0.0 3.2 0.00 0.00 0.00 71 1022.4
20260905214505 19 143 0.0 3.2 0.00 0.00 0.00 71 1022.3
20260905214006 19 151 0.0 3.2 0.00 0.00 0.00 71 1022.2
20260905213505 19 151 0.0 3.2 0.00 0.00 0.00 70 1022.2
20260905213005 20 129 1.6 3.2 0.00 0.00 0.00 70 1022.1
20260905212505 20 90 0.0 1.6 0.00 0.00 0.00 70 1022.0
20260905212006 20 90 0.0 1.6 0.00 0.00 0.00 70 1022.0
20260905211504 20 181 0.0 1.6 0.00 0.00 0.00 71 1022.0
20260905211005 20 54 0.0 1.6 0.00 0.00 0.00 71 1022.0
20260905210505 20 45 0.0 1.6 0.00 0.00 0.00 70 1022.0
20260905210005 20 46 0.0 1.6 0.00 0.00 0.00 70 1022.0
20260905205504 20 165 0.0 3.2 0.00 0.00 0.00 70 1022.1
20260905205005 20 173 0.0 3.2 0.00 0.00 0.00 70 1021.9
20260905204505 20 168 3.2 3.2 0.00 0.00 0.00 70 1021.9
20260905204006 20 80 0.0 3.2 0.00 0.00 0.00 70 1021.9
20260905203505 20 42 0.0 4.8 0.00 0.00 0.00 70 1021.7
20260905203005 20 17 3.2 4.8 0.00 0.00 0.00 70 1021.9
20260905202505 20 12 3.2 4.8 0.00 0.00 0.00 70 1021.9
20260905202005 20 30 3.2 4.8 0.00 0.00 0.00 70 1021.8
20260905201504 20 141 0.0 3.2 0.00 0.00 0.00 69 1021.9
20260905201005 20 175 1.6 3.2 0.00 0.00 0.00 68 1021.7
20260905200505 20 171 1.6 3.2 0.00 0.00 0.00 68 1021.6
20260905200005 20 157 1.6 3.2 0.00 0.00 0.00 68 1021.6
20260905195504 20 126 3.2 3.2 0.00 0.00 0.00 67 1021.5
20260905195006 20 130 0.0 3.2 0.00 0.00 0.00 66 1021.6
20260905194505 21 151 1.6 3.2 0.00 0.00 0.00 65 1021.4
20260905194005 21 170 1.6 6.4 0.00 0.00 0.00 65 1021.4
20260905193504 21 150 4.8 6.4 0.00 0.00 0.00 65 1021.3
20260905193005 21 54 1.6 3.2 0.00 0.00 0.00 64 1021.2
20260905192505 21 128 1.6 3.2 0.00 0.00 0.00 63 1021.0
20260905192005 21 135 1.6 3.2 0.00 0.00 0.00 63 1021.1
20260905191505 21 135 0.0 1.6 0.00 0.00 0.00 62 1021.0
20260905191005 21 135 0.0 1.6 0.00 0.00 0.00 62 1021.1
20260905190504 21 135 0.0 3.2 0.00 0.00 0.00 62 1020.9
20260905190006 21 157 0.0 6.4 0.00 0.00 0.00 62 1021.0
20260905185505 21 151 3.2 6.4 0.00 0.00 0.00 61 1020.8
20260905185005 22 119 1.6 4.8 0.00 0.00 0.00 61 1020.9
20260905184504 22 126 1.6 4.8 0.00 0.00 0.00 56 1020.6
20260905184005 22 144 1.6 3.2 0.00 0.00 0.00 55 1020.7
20260905183504 22 158 0.0 1.6 0.00 0.00 0.00 55 1020.5
20260905183005 23 150 0.0 3.2 0.00 0.00 0.00 54 1020.4
20260905182505 23 163 0.0 3.2 0.00 0.00 0.00 54 1020.5
20260905182005 23 188 3.2 3.2 0.00 0.00 0.00 53 1020.4
20260905181504 23 45 0.0 1.6 0.00 0.00 0.00 52 1020.3
20260905181005 23 45 0.0 1.6 0.00 0.00 0.00 51 1020.2
20260905180504 24 45 0.0 3.2 0.00 0.00 0.00 50 1020.1
20260905180005 24 45 0.0 3.2 0.00 0.00 0.00 50 1020.2
20260905175505 24 45 3.2 4.8 0.00 0.00 0.00 48 1019.9
20260905175005 24 32 0.0 4.8 0.00 0.00 0.00 48 1019.9
20260905174505 25 35 3.2 4.8 0.00 0.00 0.00 47 1019.8
20260905174006 25 60 3.2 4.8 0.00 0.00 0.00 45 1019.9
20260905173504 25 264 0.0 1.6 0.00 0.00 0.00 45 1019.6
20260905173005 25 104 0.0 3.2 0.00 0.00 0.00 45 1019.5
20260905172505 25 107 0.0 3.2 0.00 0.00 0.00 45 1019.3
20260905172005 26 112 1.6 3.2 0.00 0.00 0.00 46 1019.3
20260905171504 26 90 0.0 3.2 0.00 0.00 0.00 47 1019.4
20260905171005 25 64 1.6 3.2 0.00 0.00 0.00 47 1019.2
20260905170505 25 114 0.0 3.2 0.00 0.00 0.00 47 1019.2
20260905170005 25 128 0.0 3.2 0.00 0.00 0.00 47 1019.2
20260905165504 25 70 1.6 6.4 0.00 0.00 0.00 47 1019.3
20260905165004 25 37 3.2 6.4 0.00 0.00 0.00 46 1019.4
20260905164504 26 53 1.6 9.7 0.00 0.00 0.00 46 1019.5
20260905164005 25 61 3.2 9.7 0.00 0.00 0.00 46 1019.4
20260905163505 25 4 6.4 11.3 0.00 0.00 0.00 46 1019.3
20260905163005 25 11 3.2 17.7 0.00 0.00 0.00 47 1019.1
20260905162504 25 19 4.8 17.7 0.00 0.00 0.00 48 1019.1
20260905162005 25 15 8.0 17.7 0.00 0.00 0.00 48 1019.0
20260905161505 25 12 4.8 12.9 0.00 0.00 0.00 48 1018.9
20260905161005 25 6 6.4 12.9 0.00 0.00 0.00 47 1019.0
20260905160504 26 7 4.8 9.7 0.00 0.00 0.00 45 1018.9
20260905160005 26 16 4.8 9.7 0.00 0.00 0.00 45 1018.9
20260905155505 26 20 6.4 8.0 0.00 0.00 0.00 44 1018.8
20260905155005 26 9 3.2 9.7 0.00 0.00 0.00 44 1018.7
20260905154504 27 7 6.4 9.7 0.00 0.00 0.00 42 1018.8
20260905154005 27 27 3.2 6.4 0.00 0.00 0.00 39 1018.6
20260905153505 27 95 4.8 6.4 0.00 0.00 0.00 38 1018.5
20260905153006 28 109 3.2 6.4 0.00 0.00 0.00 37 1018.3
20260905152505 28 106 3.2 6.4 0.00 0.00 0.00 37 1018.3
20260905152005 28 89 4.8 6.4 0.00 0.00 0.00 36 1018.0
20260905151504 28 136 3.2 6.4 0.00 0.00 0.00 37 1018.2
20260905151005 28 149 3.2 6.4 0.00 0.00 0.00 37 1018.1
20260905150504 28 136 4.8 6.4 0.00 0.00 0.00 37 1018.0
20260905150004 28 154 3.2 6.4 0.00 0.00 0.00 38 1017.9
20260905145504 28 142 3.2 6.4 0.00 0.00 0.00 38 1017.9
20260905145005 28 39 1.6 9.7 0.00 0.00 0.00 39 1017.9
20260905144505 28 102 3.2 12.9 0.00 0.00 0.00 38 1017.8
20260905144005 28 91 4.8 12.9 0.00 0.00 0.00 38 1017.7
20260905143504 28 25 6.4 11.3 0.00 0.00 0.00 37 1017.6
20260905143005 28 13 6.4 16.1 0.00 0.00 0.00 36 1017.7
20260905142505 28 33 6.4 24.1 0.00 0.00 0.00 37 1017.7
20260905142004 28 32 3.2 24.1 0.00 0.00 0.00 37 1017.9
20260905141504 28 60 8.0 16.1 0.00 0.00 0.00 38 1017.8
20260905141005 28 123 6.4 14.5 0.00 0.00 0.00 39 1017.8
20260905140504 29 115 9.7 14.5 0.00 0.00 0.00 38 1017.9
20260905140005 29 33 9.7 17.7 0.00 0.00 0.00 38 1017.7
20260905135504 30 36 3.2 17.7 0.00 0.00 0.00 37 1017.7
20260905135005 30 157 11.3 17.7 0.00 0.00 0.00 37 1017.7
20260905134504 31 317 3.2 9.7 0.00 0.00 0.00 37 1017.6
20260905134004 31 267 4.8 9.7 0.00 0.00 0.00 36 1017.6
20260905133504 31 172 3.2 11.3 0.00 0.00 0.00 36 1017.4
20260905133004 31 173 4.8 11.3 0.00 0.00 0.00 36 1017.4
20260905132504 32 53 4.8 6.4 0.00 0.00 0.00 36 1017.2
20260905132005 32 87 3.2 8.0 0.00 0.00 0.00 36 1017.3
20260905131505 32 112 4.8 8.0 0.00 0.00 0.00 36 1017.3
20260905131005 32 187 3.2 6.4 0.00 0.00 0.00 37 1017.2
20260905130505 31 207 3.2 6.4 0.00 0.00 0.00 38 1017.2
20260905130005 31 203 4.8 6.4 0.00 0.00 0.00 38 1017.3
20260905125504 31 155 6.4 6.4 0.00 0.00 0.00 38 1017.1
20260905125004 31 82 1.6 6.4 0.00 0.00 0.00 38 1017.2
20260905124504 31 65 3.2 6.4 0.00 0.00 0.00 39 1017.2
20260905124005 31 59 3.2 6.4 0.00 0.00 0.00 39 1017.3
20260905123504 31 55 1.6 6.4 0.00 0.00 0.00 39 1017.1
20260905123004 31 78 4.8 8.0 0.00 0.00 0.00 39 1017.2
20260905122504 31 111 3.2 8.0 0.00 0.00 0.00 40 1017.2
20260905122005 31 132 3.2 8.0 0.00 0.00 0.00 40 1017.1
20260905121504 31 155 3.2 6.4 0.00 0.00 0.00 40 1017.2
20260905121005 31 127 3.2 6.4 0.00 0.00 0.00 40 1017.2
20260905120505 31 107 3.2 9.7 0.00 0.00 0.00 40 1017.1
20260905120005 31 48 3.2 9.7 0.00 0.00 0.00 40 1017.2
20260905115504 32 69 3.2 8.0 0.00 0.00 0.00 38 1017.1
20260905115004 32 67 3.2 6.4 0.00 0.00 0.00 34 1017.1
20260905114504 31 204 0.0 6.4 0.00 0.00 0.00 32 1017.2
20260905114005 31 197 3.2 8.0 0.00 0.00 0.00 33 1017.1
20260905113504 31 163 4.8 8.0 0.00 0.00 0.00 33 1017.0
20260905113005 31 152 3.2 6.4 0.00 0.00 0.00 34 1017.2
20260905112505 31 171 1.6 11.3 0.00 0.00 0.00 33 1017.2
20260905112005 30 166 3.2 12.9 0.00 0.00 0.00 34 1017.1
20260905111504 30 144 6.4 12.9 0.00 0.00 0.00 35 1017.3
20260905111005 30 141 3.2 6.4 0.00 0.00 0.00 35 1017.2
20260905110504 30 172 1.6 6.4 0.00 0.00 0.00 35 1017.4
20260905110005 30 208 4.8 9.7 0.00 0.00 0.00 35 1017.4
20260905105504 30 191 4.8 9.7 0.00 0.00 0.00 36 1017.3
20260905105005 30 90 6.4 8.0 0.00 0.00 0.00 36 1017.4
20260905104504 30 135 3.2 8.0 0.00 0.00 0.00 35 1017.4
20260905104004 30 138 3.2 6.4 0.00 0.00 0.00 36 1017.3
20260905103504 30 158 3.2 6.4 0.00 0.00 0.00 35 1017.2
20260905103005 30 184 3.2 6.4 0.00 0.00 0.00 36 1017.4
20260905102504 30 208 3.2 4.8 0.00 0.00 0.00 39 1017.5
20260905102005 30 215 3.2 4.8 0.00 0.00 0.00 39 1017.4
20260905101504 30 183 1.6 4.8 0.00 0.00 0.00 38 1017.4
20260905101005 30 166 3.2 4.8 0.00 0.00 0.00 38 1017.3
20260905100504 29 176 1.6 4.8 0.00 0.00 0.00 38 1017.3
20260905100005 29 125 1.6 4.8 0.00 0.00 0.00 38 1017.4
20260905095505 29 159 0.0 4.8 0.00 0.00 0.00 37 1017.5
20260905095005 28 202 1.6 6.4 0.00 0.00 0.00 37 1017.4
20260905094504 28 167 3.2 6.4 0.00 0.00 0.00 39 1017.5
20260905094004 28 176 0.0 6.4 0.00 0.00 0.00 40 1017.4
20260905093504 28 177 3.2 8.0 0.00 0.00 0.00 39 1017.6
20260905093005 28 181 4.8 8.0 0.00 0.00 0.00 39 1017.6
20260905092504 28 184 6.4 6.4 0.00 0.00 0.00 39 1017.5
20260905092004 28 170 3.2 6.4 0.00 0.00 0.00 39 1017.7
20260905091505 28 153 3.2 6.4 0.00 0.00 0.00 37 1017.4
20260905091005 28 181 3.2 6.4 0.00 0.00 0.00 36 1017.5
20260905083005 26 154 3.2 6.4 0.00 0.00 0.00 47 1017.3
20260905082504 26 152 3.2 8.0 0.00 0.00 0.00 48 1017.5
20260905082004 25 151 3.2 8.0 0.00 0.00 0.00 50 1017.3
20260905081504 25 188 4.8 8.0 0.00 0.00 0.00 51 1017.3
20260905081004 25 190 4.8 8.0 0.00 0.00 0.00 53 1017.2
20260905080503 24 175 3.2 4.8 0.00 0.00 0.00 54 1017.4
20260905080004 24 158 3.2 4.8 0.00 0.00 0.00 54 1017.1
20260905075504 24 143 0.0 3.2 0.00 0.00 0.00 53 1017.1
20260905075005 23 155 1.6 3.2 0.00 0.00 0.00 54 1017.1
20260905074504 23 153 1.6 3.2 0.00 0.00 0.00 54 1017.0
20260905074004 23 169 0.0 3.2 0.00 0.00 0.00 54 1017.0
20260905073504 23 169 1.6 3.2 0.00 0.00 0.00 53 1017.1
20260905073005 23 164 3.2 3.2 0.00 0.00 0.00 53 1017.1
20260905072504 23 145 3.2 3.2 0.00 0.00 0.00 53 1017.0
20260905072004 23 61 0.0 3.2 0.00 0.00 0.00 53 1017.0
20260905071504 23 56 3.2 3.2 0.00 0.00 0.00 53 1017.0
20260905071004 22 53 0.0 3.2 0.00 0.00 0.00 54 1016.9
20260905070503 22 56 0.0 3.2 0.00 0.00 0.00 54 1016.8
20260905070004 22 56 1.6 3.2 0.00 0.00 0.00 60 1016.8
20260905065504 21 45 0.0 1.6 0.00 0.00 0.00 61 1016.8
20260905065004 21 62 0.0 1.6 0.00 0.00 0.00 62 1016.6
20260905064504 21 80 0.0 1.6 0.00 0.00 0.00 62 1016.8